Location: Eckley Miners' Village
(40.9930°N, 75.8630°W)
Time: 16:34:02
(UTC-04:00)

Tiangong - Visible Passes

Search period start: 20 May 2025 00:00
Search period end: 30 May 2025 00:00
Orbit: 377 x 385 km, 41.5° (Epoch: 20 May)

Date Brightness Start Highest point End Pass type
(mag) Time Alt. Az. Time Alt. Az. Time Alt. Az.
20 May 0.3 02:49:48 19° E 02:49:48 19° E 02:50:51 10° E visible
20 May -2.2 04:21:56 15° W 04:24:30 85° N 04:27:40 10° E visible
21 May -1.9 03:24:00 69° ENE 03:24:00 69° ENE 03:26:52 10° E visible
21 May -2.0 04:57:20 10° W 05:00:27 57° SSW 05:03:34 10° ESE visible
22 May -2.3 03:58:17 31° W 03:59:40 80° SSW 04:02:50 10° ESE visible
23 May -0.1 03:00:38 23° E 03:00:38 23° E 03:01:58 10° E visible
23 May -1.6 04:32:48 12° W 04:35:27 38° SSW 04:38:25 10° SE visible
24 May -1.4 03:35:27 41° SE 03:35:27 41° SE 03:37:44 10° ESE visible
25 May -0.8 04:10:50 23° S 04:10:50 23° S 04:12:53 10° SSE visible
26 May -0.3 21:16:55 10° S 21:18:38 14° SSE 21:19:06 14° SE visible
27 May -1.6 21:51:05 10° SW 21:53:58 36° SSE 21:54:40 31° SE visible
28 May -2.4 22:26:22 10° WSW 22:29:30 77° SSE 22:29:33 76° SSE visible
29 May -2.1 21:25:20 10° WSW 21:28:23 53° SSE 21:31:28 10° E visible
29 May -0.8 23:01:57 10° W 23:03:56 35° W 23:03:56 35° W visible
